OE-1066 Weather Reports


time (UTC)temp
C
wind
direction
speed
KPH
gust
KPH
rain 1hr
cm
rain 24hr
cm
rain mn
cm
humidity
%
barometer
mb
20260903071110 19 112 3.2 6.4 0.00 0.00 0.00 65 1021.9
20260903064109 18 175 3.2 6.4 0.00 0.00 0.00 69 1022.0
20260903061110 18 161 3.2 6.4 0.00 0.00 0.00 70 1022.1
20260903054109 17 194 3.2 8.0 0.00 0.00 0.00 71 1021.1
20260903051110 17 178 3.2 8.0 0.00 0.00 0.00 71 1021.1
20260903044109 17 191 1.6 8.0 0.00 0.00 0.00 73 1021.2
20260903041109 17 212 1.6 3.2 0.00 0.00 0.00 74 1021.2
20260903031110 18 206 1.6 4.8 0.00 0.00 0.00 72 1021.1
20260903021109 18 259 1.6 4.8 0.00 0.00 0.00 69 1021.0
20260903014109 18 99 3.2 11.3 0.00 0.00 0.00 69 1021.0
20260903011110 18 169 3.2 8.0 0.00 0.00 0.00 70 1020.0
20260903004110 18 169 4.8 9.7 0.00 0.00 0.00 70 1020.0
20260903001509 18 186 6.4 12.9 0.00 0.00 0.00 69 1020.0
20260902234110 18 178 6.4 11.3 0.00 0.00 0.00 69 1019.9
20260902224110 19 193 4.8 9.7 0.00 0.00 0.00 68 1019.8
20260902221110 19 187 4.8 9.7 0.00 0.00 0.00 66 1019.8
20260902214110 20 186 3.2 6.4 0.00 0.00 0.00 66 1019.7
20260902211110 20 190 1.6 4.8 0.00 0.00 0.00 62 1019.6
20260902204111 21 131 3.2 6.4 0.00 0.00 0.00 61 1019.5
20260902201110 21 177 3.2 8.0 0.00 0.00 0.00 60 1019.5
20260902194110 21 181 3.2 8.0 0.00 0.00 0.00 60 1019.4
20260902191110 22 145 3.2 6.4 0.00 0.00 0.00 57 1019.3
20260902184110 22 67 3.2 6.4 0.00 0.00 0.00 53 1018.2
20260902181110 23 65 3.2 9.7 0.00 0.00 0.00 51 1018.1
20260902174110 24 24 3.2 8.0 0.00 0.00 0.00 47 1017.9
20260902171110 25 332 3.2 11.3 0.00 0.00 0.00 46 1017.9
20260902164110 25 11 3.2 9.7 0.00 0.00 0.00 46 1017.8
20260902161110 25 346 4.8 12.9 0.00 0.00 0.00 46 1017.8
20260902154110 25 354 6.4 19.3 0.00 0.00 0.00 46 1017.8
20260902151110 25 337 6.4 14.5 0.00 0.00 0.00 46 1017.7
20260902144110 25 341 4.8 11.3 0.00 0.00 0.00 46 1017.8
20260902141110 25 22 6.4 19.3 0.00 0.00 0.00 45 1017.8
20260902134109 25 337 4.8 12.9 0.00 0.00 0.00 45 1017.8
20260902131110 25 315 4.8 12.9 0.00 0.00 0.00 45 1018.9
20260902124109 25 325 4.8 14.5 0.00 0.00 0.00 43 1018.9
20260902121110 24 315 4.8 11.3 0.00 0.00 0.00 46 1018.9
20260902114110 24 314 4.8 11.3 0.00 0.00 0.00 48 1019.0
20260902111110 23 301 4.8 12.9 0.00 0.00 0.00 51 1019.1
20260902104110 23 322 4.8 11.3 0.00 0.00 0.00 52 1019.2
20260902101110 23 322 4.8 9.7 0.00 0.00 0.00 52 1020.2
20260902094110 22 328 3.2 9.7 0.00 0.00 0.00 54 1020.3
20260902091109 22 271 3.2 8.0 0.00 0.00 0.00 56 1020.4
20260902084109 21 342 3.2 8.0 0.00 0.00 0.00 59 1020.5
20260902081109 20 143 3.2 6.4 0.00 0.00 0.00 62 1020.7
20260902074110 18 73 3.2 8.0 0.00 0.00 0.00 66 1020.9